Weather History for KCEC - May, 2013

Change the Weather History Date:

Wednesday, May 15, 2013

  Actual Average Record
Temperature  
Mean Temperature 53 °F 52 °F  
Max Temperature 58 °F 58 °F 82 °F (1956)
Min Temperature 47 °F 47 °F 35 °F (1999)
Degree Days  
Heating Degree Days 14 13  
Month to date heating degree days 203  
Since 1 July heating degree days 4360  
Cooling Degree Days 0 0  
Month to date cooling degree days 0  
Year to date cooling degree days 0  
Growing Degree Days 2 (Base 50)    
Moisture  
Dew Point 48 °F    
Average Humidity 84    
Maximum Humidity 100    
Minimum Humidity 67    
Precipitation  
Precipitation 0.00 in 0.10 in 2.52 in (1996)
Month to date precipitation 0.21 1.64  
Year to date precipitation 16.52 33.97  
Since 1 July precipitation 50.22  
Snow  
Snow 0.00 in - - ()
Month to date snowfall 0.0  
Since 1 July snowfall 0.0  
Snow Depth -    
Sea Level Pressure  
Sea Level Pressure 30.13 in    
Wind  
Wind Speed 6 mph (SSE)    
Max Wind Speed 10 mph    
Max Gust Speed 13 mph    
Visibility 9 miles    
Events      
T = Trace of Precipitation, MM = Missing Value Source: NWS Daily Summary

Daily Weather History Graph

Daily Weather History Graph

Search for Another Location

Airport or City:

Trip Planner

Search our weather history database for the weather conditions in past years. The results will help you decide how hot, cold, wet, or windy it might be!

Date:

Astronomy

May. 15, 2013 Rise Set
Actual Time 5:56 AM PDT 8:30 PM PDT
Civil Twilight 5:24 AM PDT 9:02 PM PDT
Nautical Twilight 4:45 AM PDT 9:42 PM PDT
Astronomical Twilight 4:00 AM PDT 10:27 PM PDT
Moon 10:38 AM PDT (5/15) 12:19 AM PDT (5/15)
Length of Visible Light 15h 37m
Length of Day
14h 33m
Waxing Crescent, 28% of the Moon is Illuminated
May 15
Waxing Crescent
May 17
First Quarter
May 24
Full
May 31
Last Quarter
Jun 8
New

Hourly Weather History & Observations

Time (PDT) Temp. Dew Point Humidity Pressure Visibility Wind Dir Wind Speed Gust Speed Precip Events Conditions
12:56 AM 48.9 °F 46.9 °F 93% 30.15 in 7.0 mi SSE 4.6 mph - N/A   Mostly Cloudy
1:42 AM 48.2 °F 46.4 °F 93% 30.14 in 8.0 mi ESE 5.8 mph - N/A   Scattered Clouds
1:56 AM 48.9 °F 46.9 °F 93% 30.14 in 8.0 mi SSE 6.9 mph - N/A   Clear
2:56 AM 48.9 °F 46.9 °F 93% 30.15 in 8.0 mi South 9.2 mph - N/A   Clear
3:25 AM 48.2 °F 46.4 °F 93% 30.14 in 6.0 mi South 4.6 mph - N/A   Mostly Cloudy
3:56 AM 48.9 °F 46.9 °F 93% 30.14 in 6.0 mi South 3.5 mph - N/A   Mostly Cloudy
4:32 AM 48.2 °F 46.4 °F 93% 30.13 in 8.0 mi SSE 5.8 mph - N/A   Scattered Clouds
4:56 AM 46.9 °F 46.0 °F 97% 30.13 in 6.0 mi SSE 3.5 mph - N/A   Partly Cloudy
5:56 AM 48.0 °F 46.0 °F 93% 30.14 in 8.0 mi SSE 3.5 mph - N/A   Clear
6:56 AM 48.0 °F 48.0 °F 100% 30.14 in 6.0 mi Calm Calm - N/A   Clear
7:56 AM 51.1 °F 48.0 °F 89% 30.16 in 9.0 mi South 5.8 mph - N/A   Clear
8:56 AM 52.0 °F 48.9 °F 89% 30.17 in 8.0 mi South 8.1 mph - N/A   Partly Cloudy
9:56 AM 54.0 °F 48.0 °F 80% 30.16 in 10.0 mi ESE 8.1 mph - N/A   Clear
10:56 AM 55.0 °F 48.0 °F 77% 30.16 in 10.0 mi South 8.1 mph - N/A   Scattered Clouds
11:56 AM 57.0 °F 51.1 °F 81% 30.17 in 10.0 mi South 9.2 mph - N/A   Overcast
12:56 PM 55.9 °F 46.9 °F 72% 30.16 in 10.0 mi SW 8.1 mph - N/A   Mostly Cloudy
1:56 PM 57.9 °F 46.0 °F 65% 30.15 in 10.0 mi South 5.8 mph - N/A   Mostly Cloudy
2:56 PM 55.9 °F 46.0 °F 69% 30.15 in 10.0 mi SW 5.8 mph - N/A   Partly Cloudy
3:56 PM 55.9 °F 46.9 °F 72% 30.16 in 10.0 mi WSW 6.9 mph - N/A   Mostly Cloudy
4:56 PM 57.0 °F 50.0 °F 77% 30.15 in 10.0 mi South 5.8 mph - N/A   Overcast
5:56 PM 55.9 °F 48.0 °F 75% 30.13 in 10.0 mi South 6.9 mph - N/A   Overcast
6:38 PM 55.4 °F 48.2 °F 77% 30.12 in 10.0 mi SSE 4.6 mph - N/A   Overcast
6:56 PM 55.0 °F 48.0 °F 77% 30.12 in 10.0 mi South 5.8 mph - N/A   Overcast
7:05 PM 55.4 °F 48.2 °F 77% 30.11 in 10.0 mi South 5.8 mph - N/A   Overcast
7:31 PM 53.6 °F 48.2 °F 82% 30.12 in 10.0 mi South 6.9 mph - N/A   Overcast
7:56 PM 54.0 °F 48.0 °F 80% 30.12 in 10.0 mi SSE 6.9 mph - N/A   Overcast
8:21 PM 53.6 °F 48.2 °F 82% 30.11 in 10.0 mi ESE 5.8 mph - N/A   Overcast
8:56 PM 54.0 °F 46.9 °F 77% 30.11 in 10.0 mi SSE 4.6 mph - N/A   Overcast
9:25 PM 55.4 °F 48.2 °F 77% 30.10 in 10.0 mi ESE 4.6 mph - N/A   Overcast
9:56 PM 55.0 °F 48.0 °F 77% 30.10 in 10.0 mi SSE 5.8 mph - N/A   Overcast
10:56 PM 54.0 °F 48.0 °F 80% 30.09 in 10.0 mi South 6.9 mph - N/A   Overcast
11:56 PM 53.1 °F 48.0 °F 83% 30.08 in 9.0 mi South 4.6 mph - N/A   Overcast